Location: *
(47.8307°S, 178.3954°E)
Time: 06:43:57
(UTC+00:00)

USA 267 - Pass Details

Date: 12 August 2024
Orbit: 1099 x 1109 km, 123.0° (Epoch: 17 September)

Event Time Altitude Azimuth Distance (km) Brightness Sun altitude
Rises 15:31:07 0° 99° (E) 3,936 7.1 -37.3°
Reaches altitude 10° 15:33:44 10° 106° (ESE) 2,979 6.3 -36.9°
Enters shadow 15:39:46 42° 172° (S) 1,552 4.1 -35.9°
